This is the latest recevied weather packets stored in our database for station/object IW2NIA-3. If no packets are shown the sender has not sent any weather packets the latest 1 day(s).
| Time | Temp. | Humidity | Pressure | Rain* | Wind** | Luminosity | Snow |
|---|---|---|---|---|---|---|---|
| 1778011416 | 12.78° C | 96% | 1012 hPa | 0.25 mm | 1.34 m/s, 182° | - | - |
| 1778010508 | 12.78° C | 96% | 1011.9 hPa | 0 mm | 1.34 m/s, 167° | - | - |
| 1778009621 | 12.78° C | 96% | 1011.8 hPa | 0 mm | 0.45 m/s, 186° | - | - |
| 1778008714 | 12.78° C | 96% | 1011.8 hPa | 0 mm | 0.45 m/s, 161° | - | - |
| 1778007822 | 12.78° C | 96% | 1011.7 hPa | 0.25 mm | 0 m/s | - | - |
| 1778006909 | 12.78° C | 96% | 1011.4 hPa | 0.51 mm | 1.34 m/s, 182° | - | - |
| 1778006026 | 12.78° C | 95% | 1011.4 hPa | 1.52 mm | 0.45 m/s, 179° | - | - |
| 1778005118 | 12.78° C | 95% | 1011.3 hPa | 3.3 mm | 0.45 m/s, 154° | - | - |
| 1778004210 | 12.78° C | 95% | 1011.4 hPa | 3.3 mm | 0.89 m/s, 186° | - | - |
| 1778003320 | 12.78° C | 95% | 1011.4 hPa | 3.05 mm | 2.68 m/s, 138° | - | - |
| 1778002410 | 12.78° C | 95% | 1011.4 hPa | 2.29 mm | 1.34 m/s, 131° | - | - |
| 1778001527 | 12.78° C | 95% | 1011.4 hPa | 0.76 mm | 0.89 m/s, 180° | - | - |
| 1778000621 | 12.78° C | 95% | 1011.5 hPa | 0.51 mm | 0.45 m/s, 194° | - | - |
| 1777999715 | 13.33° C | 95% | 1011.5 hPa | 0.76 mm | 0.89 m/s, 123° | - | - |
| 1777998828 | 13.33° C | 95% | 1011.5 hPa | 0.51 mm | 0.89 m/s, 150° | - | - |
| 1777997921 | 13.33° C | 95% | 1011.6 hPa | 0.25 mm | 2.24 m/s, 136° | - | - |
| 1777997016 | 13.33° C | 94% | 1011.6 hPa | 0.25 mm | 0.89 m/s, 123° | - | - |
| 1777996112 | 13.33° C | 94% | 1011.7 hPa | 0.25 mm | 2.24 m/s, 113° | - | - |
| 1777995222 | 13.33° C | 94% | 1011.8 hPa | 0.25 mm | 2.24 m/s, 136° | - | - |
| 1777994323 | 13.33° C | 94% | 1011.7 hPa | 0.25 mm | 0.45 m/s, 130° | - | - |
| 1777993420 | 13.33° C | 94% | 1011.9 hPa | 0.25 mm | 1.34 m/s, 122° | - | - |
| 1777992518 | 13.33° C | 94% | 1011.9 hPa | 0 mm | 1.34 m/s, 91° | - | - |
| 1777991610 | 13.33° C | 94% | 1012 hPa | 0 mm | 0.89 m/s, 107° | - | - |
| 1777990720 | 13.33° C | 94% | 1012.1 hPa | 0 mm | 1.34 m/s, 99° | - | - |
| 1777989816 | 13.33° C | 93% | 1012 hPa | 0 mm | 0 m/s | - | - |
* Rain latest hour (hover to see other rain measurements)
** Current wind speed in m/s (hover to see current wind gust speed)